timestamp,wind_dir_avg,wind_spd_avg,wind_spd_max_dir,wind_spd_gust,battery_voltage,lat,long
2022-07-03 00:04:00+00:00,199.0,8.39,199.0,8.95,12.49,47.59359,-54.27349
2022-07-03 00:14:01+00:00,206.0,7.75,207.0,8.14,12.41,47.59359,-54.27349
2022-07-03 00:24:01+00:00,209.0,7.2,212.0,7.94,12.41,47.59359,-54.27349
2022-07-03 00:34:01+00:00,192.0,8.1,191.0,9.09,12.41,47.59359,-54.27349
2022-07-03 00:44:01+00:00,196.0,8.04,198.0,9.06,12.41,47.59359,-54.27349
2022-07-03 00:54:01+00:00,200.0,9.32,200.0,10.5,12.41,47.59359,-54.27349
2022-07-03 01:04:01+00:00,198.0,8.07,201.0,9.54,12.41,47.59359,-54.27349
2022-07-03 01:14:01+00:00,215.0,8.48,215.0,10.24,12.41,47.59359,-54.27349
2022-07-03 01:24:01+00:00,213.0,9.57,217.0,10.74,12.41,47.59359,-54.27349
2022-07-03 01:34:01+00:00,219.0,8.5,219.0,10.29,12.41,47.59359,-54.27349
2022-07-03 01:44:01+00:00,211.0,9.92,211.0,10.96,12.41,47.59359,-54.27349
2022-07-03 01:54:01+00:00,212.0,8.37,215.0,9.44,12.41,47.59359,-54.27349
2022-07-03 02:04:01+00:00,214.0,9.01,217.0,10.37,12.41,47.59359,-54.27349
2022-07-03 02:14:01+00:00,203.0,10.92,207.0,12.38,12.41,47.59359,-54.27349
2022-07-03 02:24:01+00:00,212.0,10.89,216.0,13.03,12.41,47.59359,-54.27349
2022-07-03 02:34:01+00:00,216.0,10.92,214.0,13.43,12.41,47.59359,-54.27349
2022-07-03 02:44:01+00:00,215.0,10.25,197.0,11.87,12.41,47.59359,-54.27349
2022-07-03 02:54:01+00:00,217.0,9.94,219.0,10.91,12.41,47.59359,-54.27349
2022-07-03 03:04:01+00:00,210.0,10.92,214.0,11.93,12.41,47.59359,-54.27349
2022-07-03 03:14:00+00:00,208.0,9.84,202.0,11.47,12.41,47.59359,-54.27349
2022-07-03 03:24:00+00:00,218.0,9.93,223.0,11.81,12.41,47.59359,-54.27349
2022-07-03 03:34:00+00:00,219.0,11.04,222.0,12.91,12.41,47.59359,-54.27349
2022-07-03 03:44:00+00:00,214.0,9.67,218.0,12.41,12.41,47.59359,-54.27349
2022-07-03 03:54:00+00:00,211.0,8.91,215.0,10.76,12.41,47.59359,-54.27349
2022-07-03 04:04:00+00:00,216.0,10.29,209.0,12.08,12.41,47.59359,-54.27349
2022-07-03 04:14:00+00:00,216.0,10.07,224.0,12.12,12.33,47.59359,-54.27349
2022-07-03 04:24:00+00:00,213.0,9.63,213.0,11.11,12.33,47.59359,-54.27349
2022-07-03 04:34:00+00:00,213.0,11.24,215.0,13.38,12.33,47.59359,-54.27349
2022-07-03 04:44:00+00:00,201.0,10.37,201.0,11.16,12.33,47.59359,-54.27349
2022-07-03 04:54:00+00:00,201.0,10.01,203.0,11.23,12.33,47.59359,-54.27349
2022-07-03 05:04:00+00:00,203.0,9.07,206.0,9.95,12.33,47.59359,-54.27349
2022-07-03 05:14:01+00:00,206.0,9.07,210.0,10.07,12.33,47.59359,-54.27349
2022-07-03 05:24:01+00:00,193.0,8.2,191.0,9.43,12.33,47.59359,-54.27349
2022-07-03 05:34:01+00:00,203.0,11.39,210.0,13.18,12.33,47.59359,-54.27349
2022-07-03 05:44:01+00:00,215.0,11.76,215.0,12.85,12.33,47.59359,-54.27349
2022-07-03 05:54:01+00:00,216.0,13.75,214.0,17.17,12.33,47.59359,-54.27349
2022-07-03 06:04:01+00:00,213.0,13.81,210.0,17.59,12.33,47.59359,-54.27349
2022-07-03 06:14:00+00:00,216.0,13.44,215.0,15.81,12.25,47.59359,-54.27349
2022-07-03 06:24:00+00:00,218.0,12.32,223.0,13.66,12.25,47.59359,-54.27349
2022-07-03 06:34:00+00:00,218.0,12.53,214.0,14.26,12.25,47.59359,-54.27349
2022-07-03 06:44:00+00:00,219.0,12.19,218.0,14.02,12.25,47.59359,-54.27349
2022-07-03 06:54:00+00:00,216.0,12.75,216.0,14.11,12.25,47.59359,-54.27349
2022-07-03 07:04:00+00:00,218.0,12.12,214.0,13.66,12.25,47.59359,-54.27349
2022-07-03 07:14:00+00:00,220.0,11.45,219.0,12.69,12.17,47.59359,-54.27349
2022-07-03 07:24:00+00:00,219.0,10.19,223.0,11.72,12.17,47.59359,-54.27349
2022-07-03 07:34:00+00:00,218.0,9.84,226.0,11.45,12.17,47.59359,-54.27349
2022-07-03 07:44:00+00:00,214.0,8.64,217.0,10.44,12.17,47.59359,-54.27349
2022-07-03 07:54:00+00:00,220.0,10.8,222.0,13.22,12.17,47.59359,-54.27349
2022-07-03 08:04:00+00:00,221.0,11.35,228.0,12.86,12.17,47.59359,-54.27349
2022-07-03 08:14:00+00:00,222.0,11.16,225.0,13.03,12.17,47.59359,-54.27349
2022-07-03 08:24:00+00:00,216.0,9.6,228.0,12.35,12.17,47.59359,-54.27349
2022-07-03 08:34:00+00:00,220.0,10.17,229.0,12.52,12.17,47.59359,-54.27349
2022-07-03 08:44:00+00:00,219.0,9.42,231.0,11.34,12.17,47.59359,-54.27349
2022-07-03 08:54:00+00:00,206.0,9.1,215.0,10.84,12.17,47.59359,-54.27349
2022-07-03 09:04:00+00:00,206.0,9.28,222.0,11.38,12.17,47.59359,-54.27349
2022-07-03 09:14:01+00:00,213.0,9.19,226.0,11.71,12.25,47.59359,-54.27349
2022-07-03 09:24:01+00:00,212.0,8.06,227.0,9.65,12.25,47.59359,-54.27349
2022-07-03 09:34:01+00:00,215.0,8.84,231.0,11.35,12.25,47.59359,-54.27349
2022-07-03 09:44:01+00:00,218.0,11.2,225.0,13.09,12.25,47.59359,-54.27349
2022-07-03 09:54:01+00:00,221.0,13.63,221.0,14.89,12.25,47.59359,-54.27349
2022-07-03 10:04:01+00:00,222.0,12.17,221.0,13.72,12.25,47.59359,-54.27349
2022-07-03 10:14:00+00:00,218.0,9.91,230.0,11.97,12.41,47.59359,-54.27349
2022-07-03 10:24:00+00:00,230.0,9.5,235.0,12.03,12.41,47.59359,-54.27349
2022-07-03 10:34:00+00:00,222.0,7.93,234.0,11.6,12.41,47.59359,-54.27349
2022-07-03 10:44:00+00:00,221.0,8.0,231.0,11.9,12.41,47.59359,-54.27349
2022-07-03 10:54:00+00:00,213.0,6.57,214.0,7.59,12.41,47.59359,-54.27349
2022-07-03 11:04:00+00:00,215.0,6.02,218.0,6.55,12.41,47.59359,-54.27349
2022-07-03 11:14:00+00:00,225.0,8.52,236.0,10.98,13.21,47.59359,-54.27349
2022-07-03 11:24:00+00:00,232.0,10.53,237.0,11.63,13.21,47.59359,-54.27349
2022-07-03 11:34:00+00:00,231.0,9.49,242.0,11.58,13.21,47.59359,-54.27349
2022-07-03 11:44:00+00:00,218.0,9.06,231.0,11.54,13.21,47.59359,-54.27349
2022-07-03 11:54:00+00:00,208.0,8.18,223.0,9.56,13.21,47.59359,-54.27349
2022-07-03 12:04:00+00:00,202.0,8.21,203.0,9.12,13.21,47.59359,-54.27349
2022-07-03 12:14:00+00:00,203.0,8.44,203.0,9.32,13.53,47.59359,-54.27349
2022-07-03 12:24:00+00:00,202.0,8.96,210.0,9.79,13.53,47.59359,-54.27349
2022-07-03 12:34:00+00:00,220.0,10.11,228.0,12.1,13.53,47.59359,-54.27349
2022-07-03 12:44:00+00:00,223.0,11.77,224.0,13.15,13.53,47.59359,-54.27349
2022-07-03 12:54:00+00:00,220.0,12.05,222.0,13.9,13.53,47.59359,-54.27349
2022-07-03 13:04:00+00:00,226.0,12.25,226.0,13.38,13.53,47.59359,-54.27349
2022-07-03 13:14:00+00:00,232.0,11.43,238.0,12.32,13.6,47.59359,-54.27349
2022-07-03 13:24:00+00:00,232.0,10.81,232.0,12.06,13.6,47.59359,-54.27349
2022-07-03 13:34:00+00:00,217.0,9.93,234.0,13.44,13.6,47.59359,-54.27349
2022-07-03 13:44:00+00:00,219.0,10.44,225.0,12.38,13.6,47.59359,-54.27349
2022-07-03 13:54:00+00:00,217.0,9.89,223.0,12.14,13.6,47.59359,-54.27349
2022-07-03 14:04:00+00:00,211.0,8.58,229.0,11.23,13.6,47.59359,-54.27349
2022-07-03 14:14:00+00:00,210.0,6.53,212.0,7.14,13.76,47.59359,-54.27349
2022-07-03 14:24:00+00:00,204.0,7.34,204.0,8.1,13.76,47.59359,-54.27349
2022-07-03 14:34:00+00:00,198.0,7.6,199.0,8.17,13.76,47.59359,-54.27349
2022-07-03 14:44:00+00:00,198.0,7.48,200.0,8.12,13.76,47.59359,-54.27349
2022-07-03 14:54:00+00:00,196.0,7.77,199.0,8.86,13.76,47.59359,-54.27349
2022-07-03 15:04:00+00:00,201.0,8.11,201.0,8.67,13.76,47.59359,-54.27349
2022-07-03 15:14:00+00:00,202.0,8.51,201.0,9.57,13.6,47.59359,-54.27349
2022-07-03 15:24:00+00:00,211.0,10.44,220.0,12.64,13.6,47.59359,-54.27349
2022-07-03 15:34:00+00:00,215.0,11.65,220.0,13.24,13.6,47.59359,-54.27349
2022-07-03 15:44:00+00:00,209.0,10.42,221.0,12.2,13.6,47.59359,-54.27349
2022-07-03 15:54:00+00:00,202.0,9.59,213.0,11.71,13.6,47.59359,-54.27349
2022-07-03 16:04:00+00:00,203.0,9.89,222.0,12.46,13.6,47.59359,-54.27349
2022-07-03 16:14:01+00:00,211.0,11.4,218.0,13.91,14.32,47.59359,-54.27349
2022-07-03 16:24:01+00:00,212.0,11.08,220.0,13.74,14.32,47.59359,-54.27349
2022-07-03 16:34:01+00:00,205.0,10.47,218.0,12.53,14.32,47.59359,-54.27349
2022-07-03 16:44:01+00:00,215.0,10.34,221.0,12.28,14.32,47.59359,-54.27349
2022-07-03 16:54:01+00:00,220.0,11.29,222.0,13.38,14.32,47.59359,-54.27349
2022-07-03 17:04:01+00:00,213.0,10.16,223.0,12.75,14.32,47.59359,-54.27349
2022-07-03 17:14:01+00:00,204.0,10.22,212.0,12.06,14.32,47.59359,-54.27349
2022-07-03 17:24:01+00:00,205.0,10.08,215.0,11.77,14.32,47.59359,-54.27349
2022-07-03 17:34:01+00:00,202.0,10.49,215.0,12.43,14.32,47.59359,-54.27349
2022-07-03 17:44:01+00:00,202.0,9.91,214.0,12.51,14.32,47.59359,-54.27349
2022-07-03 17:54:01+00:00,210.0,10.14,224.0,12.22,14.32,47.59359,-54.27349
2022-07-03 18:04:01+00:00,206.0,10.47,213.0,12.52,14.32,47.59359,-54.27349
2022-07-03 18:14:00+00:00,205.0,10.44,213.0,11.85,13.68,47.59359,-54.27349
2022-07-03 18:24:00+00:00,202.0,10.59,209.0,12.01,13.68,47.59359,-54.27349
2022-07-03 18:34:00+00:00,201.0,8.52,199.0,9.54,13.68,47.59359,-54.27349
2022-07-03 18:44:00+00:00,198.0,7.88,200.0,8.91,13.68,47.59359,-54.27349
2022-07-03 18:54:00+00:00,201.0,8.69,199.0,9.94,13.68,47.59359,-54.27349
2022-07-03 19:04:00+00:00,201.0,8.41,201.0,9.08,13.68,47.59359,-54.27349
2022-07-03 19:14:00+00:00,201.0,8.89,208.0,10.32,13.76,47.59359,-54.27349
2022-07-03 19:24:00+00:00,211.0,10.24,224.0,12.46,13.76,47.59359,-54.27349
2022-07-03 19:34:00+00:00,220.0,10.76,226.0,12.95,13.76,47.59359,-54.27349
2022-07-03 19:44:00+00:00,223.0,12.59,222.0,14.25,13.76,47.59359,-54.27349
2022-07-03 19:54:00+00:00,223.0,9.42,232.0,11.8,13.76,47.59359,-54.27349
2022-07-03 20:04:00+00:00,223.0,10.51,228.0,13.01,13.76,47.59359,-54.27349
2022-07-03 20:14:01+00:00,219.0,9.08,229.0,12.66,13.68,47.59359,-54.27349
2022-07-03 20:24:01+00:00,223.0,8.21,230.0,11.61,13.68,47.59359,-54.27349
2022-07-03 20:34:01+00:00,221.0,7.46,242.0,11.15,13.68,47.59359,-54.27349
2022-07-03 20:44:01+00:00,221.0,6.94,238.0,10.64,13.68,47.59359,-54.27349
2022-07-03 20:54:01+00:00,222.0,6.78,238.0,10.03,13.68,47.59359,-54.27349
2022-07-03 21:04:01+00:00,227.0,9.84,233.0,12.22,13.68,47.59359,-54.27349
2022-07-03 21:14:00+00:00,223.0,7.61,236.0,11.15,13.44,47.59359,-54.27349
2022-07-03 21:24:00+00:00,222.0,7.35,239.0,9.99,13.44,47.59359,-54.27349
2022-07-03 21:34:00+00:00,220.0,8.89,234.0,11.55,13.44,47.59359,-54.27349
2022-07-03 21:44:00+00:00,220.0,9.08,233.0,11.75,13.44,47.59359,-54.27349
2022-07-03 21:54:00+00:00,224.0,10.4,227.0,12.53,13.44,47.59359,-54.27349
2022-07-03 22:04:00+00:00,216.0,8.51,228.0,11.42,13.44,47.59359,-54.27349
2022-07-03 22:14:01+00:00,219.0,8.97,230.0,12.21,13.37,47.59359,-54.27349
2022-07-03 22:24:01+00:00,217.0,8.25,231.0,11.31,13.37,47.59359,-54.27349
2022-07-03 22:34:01+00:00,231.0,11.69,232.0,12.9,13.37,47.59359,-54.27349
2022-07-03 22:44:01+00:00,227.0,10.22,234.0,12.22,13.37,47.59359,-54.27349
2022-07-03 22:54:01+00:00,229.0,10.48,231.0,12.53,13.37,47.59359,-54.27349
2022-07-03 23:04:01+00:00,228.0,8.95,240.0,11.58,13.37,47.59359,-54.27349
2022-07-03 23:14:00+00:00,217.0,7.91,234.0,10.96,12.73,47.59359,-54.27349
2022-07-03 23:24:00+00:00,205.0,7.84,206.0,8.42,12.73,47.59359,-54.27349
2022-07-03 23:34:00+00:00,199.0,7.49,204.0,7.96,12.73,47.59359,-54.27349
2022-07-03 23:44:00+00:00,219.0,5.5,218.0,6.67,12.73,47.59359,-54.27349
2022-07-03 23:54:00+00:00,204.0,6.54,205.0,7.33,12.73,47.59359,-54.27349
